This is the latest recevied weather packets stored in our database for station/object E20YUC-1. If no packets are shown the sender has not sent any weather packets the latest 10 day(s).
| Time | Temp. | Humidity | Pressure | Rain* | Wind** | Luminosity | Snow |
|---|---|---|---|---|---|---|---|
| 1787402415 | 28.89° C | 74% | 996.4 hPa | 0 mm | 1.79 m/s, 0° | - | - |
| 1787401755 | 28.89° C | 74% | 996.4 hPa | 0 mm | 0 m/s | - | - |
| 1787401456 | 28.89° C | 73% | 996.5 hPa | 0 mm | 3.13 m/s, 0° | - | - |
| 1787400854 | 28.89° C | 73% | 996.4 hPa | 0 mm | 4.02 m/s, 0° | - | - |
| 1787400554 | 28.89° C | 73% | 996.4 hPa | 0 mm | 1.34 m/s, 0° | - | - |
| 1787400254 | 29.44° C | 73% | 996.3 hPa | 0 mm | 1.79 m/s, 0° | - | - |
| 1787399956 | 29.44° C | 73% | 996.3 hPa | 0 mm | 4.47 m/s, 0° | - | - |
| 1787399660 | 29.44° C | 73% | 996.3 hPa | 0 mm | 4.02 m/s, 0° | - | - |
| 1787399354 | 29.44° C | 72% | 996.2 hPa | 0 mm | 4.02 m/s, 0° | - | - |
| 1787398754 | 30° C | 72% | 996.1 hPa | 0 mm | 4.92 m/s, 0° | - | - |
| 1787398456 | 30° C | 72% | 996 hPa | 0 mm | 3.58 m/s, 0° | - | - |
| 1787398154 | 30° C | 72% | 995.8 hPa | 0 mm | 0.89 m/s, 0° | - | - |
| 1787397854 | 30° C | 72% | 995.8 hPa | 0 mm | 2.68 m/s, 0° | - | - |
| 1787397254 | 30° C | 71% | 995.7 hPa | 0 mm | 3.13 m/s, 0° | - | - |
| 1787396956 | 30° C | 71% | 995.6 hPa | 0 mm | 0.89 m/s, 0° | - | - |
| 1787396654 | 30° C | 71% | 995.8 hPa | 0 mm | 4.92 m/s, 0° | - | - |
| 1787396354 | 30.56° C | 71% | 995.8 hPa | 0 mm | 4.47 m/s, 0° | - | - |
| 1787396054 | 30.56° C | 70% | 995.8 hPa | 0 mm | 4.47 m/s, 0° | - | - |
| 1787395754 | 30.56° C | 70% | 995.7 hPa | 0 mm | 1.79 m/s, 22° | - | - |
| 1787395456 | 30.56° C | 70% | 995.6 hPa | 0 mm | 1.34 m/s, 0° | - | - |
| 1787394853 | 30.56° C | 70% | 995.3 hPa | 0 mm | 6.26 m/s, 0° | - | - |
| 1787394253 | 30.56° C | 70% | 995.2 hPa | 0 mm | 0 m/s | - | - |
| 1787393955 | 30.56° C | 70% | 995.1 hPa | 0 mm | 0.89 m/s, 0° | - | - |
| 1787393353 | 30.56° C | 70% | 995.1 hPa | 0 mm | 4.47 m/s, 0° | - | - |
| 1787392753 | 30.56° C | 70% | 995.4 hPa | 0 mm | 0.45 m/s, 0° | - | - |
* Rain latest hour (hover to see other rain measurements)
** Current wind speed in m/s (hover to see current wind gust speed)